Terminal Aerodrome Forecast
Issued by NWS Twin Cities, MN

Home | Current Version | Previous Version | Graphics & Text | Print | Product List | Glossary On
Versions: 1 2 3 4 5 6 7 8 9 10 11 12 13
000
FTUS43 KMPX 271100
TAFEAU
TAF
KEAU 271136Z 2712/2812 26006KT P6SM SCT090
     FM271400 29012KT P6SM SCT045 OVC070
     FM271700 32013G20KT P6SM -SHRA BKN025 OVC045
     FM272000 35014G22KT P6SM -SHRA SCT030 OVC045
     FM280000 36008KT P6SM VCSH SCT035 BKN050
     FM280300 33003KT P6SM SKC=

USA.gov is the U.S. government's official web portal to all federal, state and local government web resources and services.